W0KHZ Weather Reports


time (UTC)temp
F
wind
direction
speed
knots
gust
knots
rain 1hr
in
rain 24hr
in
rain mn
in
humidity
%
barometer
mb
20260509010548 68 241 1.7 9.6 0.00 0.00 0.00 28 999.6
20260509010026 68 337 0.9 1.7 0.00 0.00 0.00 28 999.7
20260509005524 68 328 0.9 1.7 0.00 0.00 0.00 28 999.6
20260509005042 68 352 0.9 3.5 0.00 0.00 0.00 28 999.5
20260509004519 68 2 0.9 2.6 0.00 0.00 0.00 28 999.5
20260509004037 68 348 0.9 2.6 0.00 0.00 0.00 28 999.5
20260509003535 69 312 0.9 1.7 0.00 0.00 0.00 28 999.6
20260509003033 69 309 0.9 5.2 0.00 0.00 0.00 28 999.6
20260509002531 69 299 0.9 5.2 0.00 0.00 0.00 27 999.6
20260509002030 69 284 1.7 6.1 0.00 0.00 0.00 27 999.7
20260509001527 69 249 1.7 6.1 0.00 0.00 0.00 26 999.6
20260509001026 69 324 0.9 2.6 0.00 0.00 0.00 27 999.7
20260509000523 70 336 0.9 3.5 0.00 0.00 0.00 26 999.7
20260509000022 70 214 1.7 6.1 0.00 0.00 0.00 26 999.6
20260508235519 70 163 0.9 6.1 0.00 0.00 0.00 26 999.8
20260508235017 70 103 1.7 5.2 0.00 0.00 0.00 25 999.9
20260508234515 70 310 2.6 7.8 0.00 0.00 0.00 26 999.9
20260508234033 71 299 0.9 3.5 0.00 0.00 0.00 25 999.9
20260508233532 71 323 1.7 3.5 0.00 0.00 0.00 24 1000.0
20260508233030 71 347 3.5 7.0 0.00 0.00 0.00 24 1000.2
20260508232528 72 327 2.6 7.8 0.00 0.00 0.00 24 1000.2
20260508232026 72 327 2.6 7.8 0.00 0.00 0.00 24 1000.1
20260508231544 72 195 3.5 7.0 0.00 0.00 0.00 24 1000.2
20260508231022 72 303 1.7 5.2 0.00 0.00 0.00 26 1000.3
20260508230520 72 258 0.9 3.5 0.00 0.00 0.00 26 1000.3
20260508230038 71 289 0.9 3.5 0.00 0.00 0.00 26 1000.3
20260508225516 71 299 1.7 7.0 0.00 0.00 0.00 25 1000.4
20260508225034 72 337 2.6 8.7 0.00 0.00 0.00 24 1000.5
20260508224532 72 3 2.6 9.6 0.00 0.00 0.00 25 1000.5
20260508224030 72 168 0.9 3.5 0.00 0.00 0.00 27 1000.4
20260508223528 71 229 1.7 2.6 0.00 0.00 0.00 26 1000.4
20260508223026 71 227 0.9 7.0 0.00 0.00 0.00 26 1000.6
20260508222524 71 293 2.6 8.7 0.00 0.00 0.00 26 1000.7
20260508222023 71 164 2.6 7.8 0.00 0.00 0.00 25 1000.7
20260508221520 71 127 1.7 7.0 0.00 0.00 0.00 25 1000.7
20260508221018 71 282 3.5 8.7 0.00 0.00 0.00 25 1000.8
20260508220515 72 333 1.7 6.1 0.00 0.00 0.00 26 1000.8
20260508220034 72 2 1.7 7.8 0.00 0.00 0.00 27 1000.7
20260508215532 72 139 1.7 6.1 0.00 0.00 0.00 26 1000.9
20260508215030 72 162 0.9 3.5 0.00 0.00 0.00 26 1000.9
20260508214528 72 141 1.7 3.5 0.00 0.00 0.00 25 1001.0
20260508214027 72 329 0.9 5.2 0.00 0.00 0.00 25 1001.1
20260508213524 72 285 1.7 5.2 0.00 0.00 0.00 26 1001.1
20260508213023 71 306 2.6 8.7 0.00 0.00 0.00 27 1001.1
20260508212521 71 142 2.6 7.8 0.00 0.00 0.00 27 1001.1
20260508212018 71 149 1.7 5.2 0.00 0.00 0.00 27 1001.3
20260508211516 71 218 2.6 7.0 0.00 0.00 0.00 25 1001.3
20260508211034 71 123 1.7 6.1 0.00 0.00 0.00 26 1001.4
20260508210532 71 224 2.6 11.3 0.00 0.00 0.00 25 1001.7
20260508210030 72 358 2.6 7.8 0.00 0.00 0.00 25 1001.5
20260508205529 72 200 1.7 3.5 0.00 0.00 0.00 25 1001.6
20260508205027 72 289 2.6 5.2 0.00 0.00 0.00 25 1001.8
20260508204525 72 299 1.7 5.2 0.00 0.00 0.00 24 1001.9
20260508204022 73 353 1.7 7.0 0.00 0.00 0.00 25 1002.0
20260508203521 73 347 2.6 7.8 0.00 0.00 0.00 25 1002.1
20260508203016 73 309 1.7 8.7 0.00 0.00 0.00 24 1002.0
20260508202555 73 230 2.6 11.3 0.00 0.00 0.00 25 1002.2
20260508202032 73 186 3.5 8.7 0.00 0.00 0.00 26 1002.4
20260508201530 73 174 2.6 7.8 0.00 0.00 0.00 27 1002.3
20260508201028 73 158 1.7 6.1 0.00 0.00 0.00 27 1002.5
20260508200526 73 164 2.6 7.8 0.00 0.00 0.00 26 1002.6
20260508200024 72 317 1.7 6.1 0.00 0.00 0.00 27 1002.6
20260508195522 72 292 1.7 8.7 0.00 0.00 0.00 26 1002.8
20260508195020 72 171 2.6 7.0 0.00 0.00 0.00 26 1002.8
20260508194517 73 306 2.6 7.0 0.00 0.00 0.00 26 1002.8
20260508194035 72 174 3.5 7.8 0.00 0.00 0.00 28 1002.9
20260508193533 72 169 2.6 7.0 0.00 0.00 0.00 27 1002.9
20260508193031 72 160 3.5 7.8 0.00 0.00 0.00 27 1003.0
20260508192548 72 174 2.6 6.1 0.00 0.00 0.00 27 1003.1
20260508192022 71 300 2.6 7.8 0.00 0.00 0.00 27 1003.2
20260508191539 71 284 1.7 2.6 0.00 0.00 0.00 27 1003.2
20260508191017 70 231 1.7 5.2 0.00 0.00 0.00 27 1003.4
20260508190535 70 318 1.7 5.2 0.00 0.00 0.00 26 1003.4
20260508190033 70 296 1.7 9.6 0.00 0.00 0.00 27 1003.6
20260508185531 70 234 1.7 7.8 0.00 0.00 0.00 28 1003.6
20260508185029 70 196 0.9 3.5 0.00 0.00 0.00 27 1003.8
20260508184527 70 158 3.5 7.0 0.00 0.00 0.00 28 1003.8
20260508184025 70 147 2.6 6.1 0.00 0.00 0.00 29 1003.8
20260508183523 70 156 1.7 5.2 0.00 0.00 0.00 26 1004.0
20260508183021 70 332 2.6 7.0 0.00 0.00 0.00 24 1004.0
20260508182519 70 287 2.6 9.6 0.00 0.00 0.00 26 1004.0
20260508182016 70 347 1.7 7.8 0.00 0.00 0.00 24 1004.1
20260508181535 70 331 2.6 5.2 0.00 0.00 0.00 25 1004.2
20260508181052 70 333 3.5 7.8 0.00 0.00 0.00 25 1004.2
20260508180531 70 206 3.5 6.1 0.00 0.00 0.00 29 1004.4
20260508180028 70 146 2.6 7.0 0.00 0.00 0.00 27 1004.5
20260508175526 70 174 2.6 6.1 0.00 0.00 0.00 28 1004.6
20260508175105 69 266 3.5 11.3 0.00 0.00 0.00 28 1004.6
20260508174522 69 171 2.6 8.7 0.00 0.00 0.00 28 1004.6
20260508174020 69 242 2.6 8.7 0.00 0.00 0.00 31 1004.7
20260508173517 69 161 3.5 7.8 0.00 0.00 0.00 32 1004.9
20260508173016 69 152 4.3 7.0 0.00 0.00 0.00 32 1004.9
20260508172534 68 161 2.6 6.1 0.00 0.00 0.00 32 1005.0
20260508172031 68 169 2.6 7.8 0.00 0.00 0.00 32 1005.1
20260508171530 68 157 2.6 9.6 0.00 0.00 0.00 31 1005.3
20260508171027 68 163 2.6 7.0 0.00 0.00 0.00 32 1005.2
20260508170546 68 189 1.7 5.2 0.00 0.00 0.00 31 1005.4
20260508170024 68 160 2.6 6.1 0.00 0.00 0.00 33 1005.6
20260508165522 68 155 4.3 9.6 0.00 0.00 0.00 34 1005.5
20260508165019 67 288 2.6 7.0 0.00 0.00 0.00 30 1005.7
20260508164516 67 176 2.6 6.1 0.00 0.00 0.00 32 1005.7
20260508164035 67 176 3.5 7.0 0.00 0.00 0.00 33 1005.8
20260508163527 67 207 1.7 3.5 0.00 0.00 0.00 34 1005.8
20260508163026 67 149 4.3 7.8 0.00 0.00 0.00 34 1005.9
20260508162524 67 150 3.5 7.0 0.00 0.00 0.00 34 1006.0
20260508162021 66 187 2.6 7.8 0.00 0.00 0.00 33 1006.3
20260508161518 66 173 2.6 5.2 0.00 0.00 0.00 33 1006.3
20260508161016 66 136 2.6 7.0 0.00 0.00 0.00 35 1006.2
20260508160534 66 300 0.9 6.1 0.00 0.00 0.00 34 1006.5
20260508160052 65 305 2.6 7.0 0.00 0.00 0.00 35 1006.4
20260508155530 65 175 2.6 6.1 0.00 0.00 0.00 38 1006.3
20260508155028 64 177 2.6 6.1 0.00 0.00 0.00 38 1006.5
20260508154527 64 174 1.7 5.2 0.00 0.00 0.00 37 1006.5
20260508154025 64 160 1.7 3.5 0.00 0.00 0.00 39 1006.5
20260508153523 63 157 1.7 5.2 0.00 0.00 0.00 40 1006.8
20260508153021 63 192 1.7 5.2 0.00 0.00 0.00 40 1006.8
20260508152518 62 192 1.7 5.2 0.00 0.00 0.00 42 1006.8
20260508152016 62 137 2.6 6.1 0.00 0.00 0.00 44 1006.8
20260508151555 61 130 1.7 3.5 0.00 0.00 0.00 44 1006.9
20260508151033 60 125 0.9 3.5 0.00 0.00 0.00 43 1007.0
20260508150531 60 110 0.9 3.5 0.00 0.00 0.00 45 1007.1
20260508150029 59 88 1.7 3.5 0.00 0.00 0.00 48 1007.1
20260508145527 58 71 0.9 2.6 0.00 0.00 0.00 50 1007.1
20260508145025 57 288 0.0 1.7 0.00 0.00 0.00 50 1007.2
20260508144524 57 0.0 0.0 0.00 0.00 0.00 50 1007.3
20260508144022 56 0.0 0.0 0.00 0.00 0.00 51 1007.3
20260508143519 55 0.0 0.0 0.00 0.00 0.00 51 1007.3
20260508143017 55 0.0 0.0 0.00 0.00 0.00 51 1007.5
20260508142515 54 287 0.0 0.9 0.00 0.00 0.00 53 1007.4
20260508142033 53 291 0.9 1.7 0.00 0.00 0.00 54 1007.4
20260508141532 52 0.0 0.0 0.00 0.00 0.00 54 1007.4
20260508141050 52 0.0 0.0 0.00 0.00 0.00 58 1007.4
20260508140528 51 0.0 0.0 0.00 0.00 0.00 60 1007.5
20260508140026 50 0.0 0.0 0.00 0.00 0.00 61 1007.5
20260508135525 49 0.0 0.0 0.00 0.00 0.00 63 1007.5
20260508135043 48 0.0 0.0 0.00 0.00 0.00 64 1007.7
20260508134521 47 0.0 0.0 0.00 0.00 0.00 65 1007.8
20260508134038 46 0.0 0.0 0.00 0.00 0.00 68 1007.6
20260508133516 45 0.0 0.0 0.00 0.00 0.00 73 1007.7
20260508133034 43 0.0 0.0 0.00 0.00 0.00 78 1007.8
20260508132532 41 0.0 0.0 0.00 0.00 0.00 80 1007.7
20260508132031 39 0.0 0.0 0.00 0.00 0.00 81 1007.8
20260508131548 38 0.0 0.0 0.00 0.00 0.00 82 1007.8
20260508131026 36 0.0 0.0 0.00 0.00 0.00 82 1008.0
20260508130525 35 0.0 0.0 0.00 0.00 0.00 82 1007.9
20260508130023 34 0.0 0.0 0.00 0.00 0.00 83 1008.0
20260508125521 33 0.0 0.0 0.00 0.00 0.00 83 1008.1
20260508125018 32 0.0 0.0 0.00 0.00 0.00 83 1008.1
20260508124516 32 0.0 0.0 0.00 0.00 0.00 83 1008.0
20260508124034 31 0.0 0.0 0.00 0.00 0.00 84 1008.0
20260508123553 31 0.0 0.0 0.00 0.00 0.00 83 1008.1
20260508123031 30 0.0 0.0 0.00 0.00 0.00 83 1007.9